This is the latest recevied weather packets stored in our database for station/object N4RCT. If no packets are shown the sender has not sent any weather packets the latest 10 day(s).
| Time | Temp. | Humidity | Pressure | Rain* | Wind** | Luminosity | Snow |
|---|---|---|---|---|---|---|---|
| 1777846219 | 19.44° C | 47% | 1016.3 hPa | 0 mm | - | 35 W/m² | - |
| 1777845915 | 19.44° C | 48% | 1016.6 hPa | 0 mm | - | 36 W/m² | - |
| 1777845612 | 19.44° C | 48% | 1016.4 hPa | 0 mm | - | 36 W/m² | - |
| 1777845309 | 19.44° C | 48% | 1016.5 hPa | 0 mm | - | 38 W/m² | - |
| 1777845006 | 20° C | 46% | 1016.5 hPa | 0 mm | - | 39 W/m² | - |
| 1777844705 | 20° C | 48% | 1016.5 hPa | 0 mm | - | 43 W/m² | - |
| 1777844401 | 20° C | 48% | 1016.4 hPa | 0 mm | - | 73 W/m² | - |
| 1777844099 | 20° C | 48% | 1016.5 hPa | 0 mm | - | 52 W/m² | - |
| 1777843795 | 20° C | 47% | 1016.6 hPa | 0 mm | - | 65 W/m² | - |
| 1777843493 | 20° C | 47% | 1016.5 hPa | 0 mm | - | 44 W/m² | - |
| 1777843190 | 20° C | 47% | 1016.6 hPa | 0 mm | - | 44 W/m² | - |
| 1777842887 | 20° C | 47% | 1016.7 hPa | 0 mm | - | 185 W/m² | - |
| 1777842583 | 20° C | 44% | 1016.8 hPa | 0 mm | - | 46 W/m² | - |
| 1777842280 | 20° C | 44% | 1016.8 hPa | 0 mm | - | 46 W/m² | - |
| 1777841974 | 20.56° C | 44% | 1017 hPa | 0 mm | - | 47 W/m² | - |
| 1777841672 | 20.56° C | 45% | 1017 hPa | 0 mm | - | 49 W/m² | - |
| 1777841368 | 20° C | 44% | 1017.1 hPa | 0 mm | - | 58 W/m² | - |
| 1777841065 | 20.56° C | 42% | 1017.2 hPa | 0 mm | - | 52 W/m² | - |
| 1777840762 | 20° C | 44% | 1017.1 hPa | 0 mm | - | 71 W/m² | - |
| 1777840459 | 20° C | 41% | 1017.2 hPa | 0 mm | - | 200 W/m² | - |
| 1777840156 | 20.56° C | 46% | 1017.3 hPa | 0 mm | - | 264 W/m² | - |
| 1777839855 | 20.56° C | 42% | 1017.3 hPa | 0 mm | - | 248 W/m² | - |
| 1777839553 | 20.56° C | 42% | 1017.5 hPa | 0 mm | - | 75 W/m² | - |
| 1777839249 | 20.56° C | 43% | 1017.6 hPa | 0 mm | - | 73 W/m² | - |
| 1777838947 | 20.56° C | 42% | 1017.5 hPa | 0 mm | - | 52 W/m² | - |
* Rain latest hour (hover to see other rain measurements)
** Current wind speed in m/s (hover to see current wind gust speed)